Hourly Data Report for April 29, 2020

MIRAMICHI RCS
NEW BRUNSWICK
Current Station Operator: ECCC - MSC

47°00'34.000" N
65°27'54.000" W
33.00 m
8100989
71744
ACQ

Download Data

Hourly Data (April 2020)
Hourly Data Report for April 29, 2020
TIME
LST
Temp Definition
°C
Dew Point Definition
°C
Rel Hum Definition
%
Precip. Amount Definition
mm

Wind Dir Definition
10's deg

Wind Spd Definition
km/h
Visibility Definition
km
Stn Press Definition
kPa
Hmdx Definition


Wind Chill Definition


Weather Definition


00:00 2.5 -3.1 66 LegendMM 2 11   101.74     LegendNANA
01:00 2.1 -3.1 68 LegendMM 1 9   101.78     LegendNANA
02:00 2.0 -3.0 69 LegendMM 2 12   101.80     LegendNANA
03:00 1.9 -3.1 69 LegendMM 3 13   101.83     LegendNANA
04:00 1.5 -3.0 72 LegendMM 3 11   101.90     LegendNANA
05:00 1.1 -3.0 74 LegendMM 3 11   101.96     LegendNANA
06:00 1.3 -2.8 74 LegendMM 2 7   102.05     LegendNANA
07:00 2.9 -2.5 68 LegendMM 4 22   102.15     LegendNANA
08:00 4.8 -2.3 60 LegendMM 5 18   102.25     LegendNANA
09:00 5.3 -2.2 59 LegendMM 7 26   102.37     LegendNANA
10:00 5.4 -1.6 60 LegendMM 7 28   102.46     LegendNANA
11:00 6.4 -0.9 60 LegendMM 7 27   102.47     LegendNANA
12:00 6.8 -1.0 58 LegendMM 7 28   102.46     LegendNANA
13:00 7.1 -1.6 54 LegendMM 7 28   102.45     LegendNANA
14:00 6.6 -2.1 54 LegendMM 8 32   102.47     LegendNANA
15:00 6.4 -3.1 50 LegendMM 8 33   102.50     LegendNANA
16:00 6.1 -3.4 50 LegendMM 8 26   102.54     LegendNANA
17:00 5.5 -3.6 52 LegendMM 7 23   102.59     LegendNANA
18:00 5.0 -2.3 59 LegendMM 7 19   102.58     LegendNANA
19:00 3.0 -2.3 68 LegendMM 5 14   102.61     LegendNANA
20:00 1.4 -2.2 77 LegendMM 6 9   102.59     LegendNANA
21:00 0.6 -2.7 79 LegendMM 6 3   102.67     LegendNANA
22:00 -1.4 -3.1 88 LegendMM 32 1   102.70   -2 LegendNANA
23:00 -1.5 -2.9 90 LegendMM 29 5   102.74   -3 LegendNANA

Notes on Data Quality.

Legend

  • E = Estimated
  • M = Missing
  • NA = Not Available*
  • [empty] = Indicates an unobserved value
Date modified: